[[{"header":{"parameterUnit":"m.s-1","parameterCategory":1,"la1":30.2991,"la2":30.254,"lo1":-89.0895,"lo2":-89.0444,"dy":0.0017,"dx":0.0017,"nx":28,"ny":28,"refTime":"2024-08-27T21:00:00:Z","depth":0,"parameterNumber":2,"parameterNumberName":"U-component_of_WINDS"},"data":[0,0,0,0,0,0,0,0,0,0,0,0,0,0,0,0,0,0,0,0,0,0,0,0,0,0,0,0,0,0,0,0,0,0,0,0,0,0,0,0,0,0,0,0,0,0,0,0,0,0,0,0,0,0,0,0,0,0,-2.6242,-2.6242,0,-2.6248,-2.6248,-2.6248,-2.6165,-2.6163,-2.616,-2.6158,-2.6165,-2.6167,-2.617,0,0,0,0,0,0,0,0,0,0,0,0,0,-2.6157,-2.6159,-2.6242,-2.6242,-2.6242,-2.6248,-2.6248,-2.6248,-2.6165,-2.6162,-2.616,-2.6157,-2.6164,-2.6167,-2.617,0,0,0,0,0,0,0,0,0,0,0,0,0,-2.6182,-2.616,-2.6242,-2.6201,-2.6198,-2.6248,-2.6248,-2.6248,-2.6166,-2.6162,-2.6159,-2.6156,-2.6163,-2.6167,-2.617,-2.626,0,0,-2.6181,-2.6182,0,0,0,0,0,0,0,0,-2.6181,-2.6185,-2.6207,-2.6204,-2.62,-2.6202,-2.6221,-2.6252,-2.6167,-2.6178,-2.6158,-2.6154,-2.618,-2.6182,-2.6191,-2.626,-2.6261,-2.6181,-2.6183,-2.6185,-2.6186,0,0,0,0,0,0,0,-2.6179,-2.6184,-2.6244,-2.6208,-2.6203,-2.6183,-2.6182,-2.6227,-2.6198,-2.6177,-2.6171,-2.6173,-2.6178,-2.6188,-2.619,-2.6261,-2.6181,-2.6184,-2.6186,-2.6188,-2.6403,-2.6406,0,0,0,0,0,0,-2.6183,-2.6184,-2.6244,-2.6245,-2.6182,-2.6187,-2.6187,-2.6205,-2.6197,-2.6193,-2.6175,-2.6169,-2.6183,-2.6186,-2.619,-2.6294,-2.6185,-2.6188,-2.619,-2.6399,-2.6404,-2.6408,0,0,0,0,0,0,-2.6181,-2.6189,-2.6244,-2.6212,-2.6218,-2.6192,-2.6213,-2.6207,-2.6217,-2.6197,-2.6191,-2.6191,-2.6181,-2.6185,-2.6243,-2.6293,-2.619,-2.6193,-2.6395,-2.6401,-2.6406,-2.6502,0,0,0,0,0,0,-2.6179,-2.6189,-2.6223,-2.6214,-2.622,-2.6297,-2.6217,-2.621,-2.6223,-2.6214,-2.621,-2.6206,-2.6179,-2.6238,-2.6246,-2.6296,-2.6195,-2.639,-2.6397,-2.6404,-2.6494,-2.651,-2.6524,0,0,0,0,0,-2.6177,-2.625,-2.6225,-2.6233,-2.6262,-2.63,-2.6303,-2.6271,-2.6227,-2.6261,-2.6248,-2.6206,-2.6286,-2.6245,-2.6253,-2.6304,-2.6387,-2.6395,-2.6403,-2.6488,-2.6507,-2.6524,0,0,0,0,0,0,-2.6267,-2.6249,-2.622,-2.6293,-2.6299,-2.6286,-2.6327,-2.6292,-2.631,-2.6301,-2.626,-2.626,-2.6324,-2.632,-2.6274,-2.639,-2.6329,-2.6339,-2.639,-2.6409,-2.6423,-2.6422,-2.6198,0,0,0,0,0,-2.6295,-2.6328,-2.631,-2.6376,-2.638,-2.6354,-2.6369,-2.6343,-2.6347,-2.6349,-2.634,-2.6346,-2.6372,-2.639,-2.6413,-2.6494,-2.6491,-2.6533,-2.6548,-2.656,-2.6569,-2.661,-2.6628,-2.6434,-2.6434,-2.6434,0,0,-2.6354,-2.6348,-2.6371,-2.6394,-2.6395,-2.6429,-2.6356,-2.6396,-2.642,-2.6355,-2.6408,-2.6402,-2.6406,-2.6475,-2.6505,-2.6473,-2.6622,-2.657,-2.658,-2.6583,-2.662,-2.6639,-2.6655,-2.644,-2.6439,-2.6438,0,0,-2.6478,-2.6478,-2.6532,-2.6535,-2.6537,-2.6519,-2.6532,-2.6524,-2.6517,-2.657,-2.6521,-2.655,-2.6597,-2.6601,-2.6609,-2.6735,-2.6696,-2.6743,-2.682,-2.686,-2.6876,-2.6889,-2.6933,-2.6949,-2.6753,-2.6753,-2.6753,0,-2.6551,-2.6601,-2.6565,-2.6607,-2.6618,-2.656,-2.6614,-2.6619,-2.6629,-2.6638,-2.6603,-2.6659,-2.6658,-2.6726,-2.6757,-2.6766,-2.6779,-2.6743,-2.6876,-2.6889,-2.6901,-2.6942,-2.6959,-2.6759,-2.6758,-2.6757,-2.6757,0,-2.669,-2.6725,-2.6768,-2.6779,-2.6795,-2.6843,-2.6814,-2.6835,-2.6808,-2.6793,-2.6847,-2.6843,-2.6864,-2.6879,-2.6853,-2.6943,-2.6924,-2.6884,-2.6821,-2.6926,-2.6964,-2.6979,-2.6767,-2.6765,-2.6763,-2.6762,0,0,-2.6871,-2.686,-2.6877,-2.688,-2.6878,-2.6905,-2.695,-2.697,-2.6988,-2.6997,-2.7034,-2.7074,-2.7037,-2.7046,-2.702,-2.7056,-2.7154,-2.7011,-2.701,-2.7036,-2.7252,-2.7282,-2.7301,-2.7129,-2.7132,-2.7134,-2.7251,0,-2.6991,-2.7068,-2.7036,-2.7115,-2.7147,-2.7092,-2.7131,-2.7135,-2.7122,-2.7147,-2.7133,-2.7162,-2.711,-2.7115,-2.7148,-2.7135,-2.7197,-2.7126,-2.7162,-2.7163,-2.7161,-2.7321,-2.7352,-2.7463,-2.7266,-2.7269,-2.727,0,-2.7141,-2.7156,-2.7238,-2.7229,-2.7241,-2.7278,-2.7293,-2.7317,-2.7319,-2.7308,-2.7318,-2.7284,-2.7327,-2.7266,-2.7325,-2.7278,-2.7291,-2.7286,-2.729,-2.7291,-2.7223,-2.7325,-2.7498,-2.7514,-2.7294,-2.7292,-2.729,0,-2.7264,-2.7304,-2.7358,-2.7363,-2.7355,-2.7381,-2.7379,-2.7377,-2.7391,-2.7405,-2.7413,-2.7432,-2.7442,-2.7457,-2.7429,-2.7387,-2.7492,-2.7428,-2.7482,-2.7483,-2.7506,-2.7505,-2.7683,-2.7517,-2.7516,-2.7516,-2.7516,0,-2.7401,-2.7453,-2.7412,-2.7446,-2.7502,-2.7466,-2.7523,-2.7514,-2.7514,-2.7544,-2.7499,-2.7528,-2.749,-2.7515,-2.7494,-2.7545,-2.7551,-2.7542,-2.7535,-2.7545,-2.7546,-2.7552,-2.7544,-2.7521,-2.752,-2.7519,-2.7518,0,-2.7547,-2.7522,-2.7577,-2.7564,-2.7562,-2.7605,-2.7594,-2.7624,-2.7608,-2.7647,-2.7654,-2.7629,-2.7657,-2.7631,-2.7658,-2.7643,-2.7711,-2.7694,-2.7711,-2.7705,-2.7761,-2.7756,-2.7948,-2.7971,-2.7791,-2.7793,-2.7795,0,-2.7635,-2.7674,-2.7665,-2.7682,-2.7682,-2.771,-2.7724,-2.7689,-2.7705,-2.7709,-2.7739,-2.7763,-2.778,-2.7827,-2.7812,-2.7832,-2.7814,-2.788,-2.7816,-2.7825,-2.7813,-2.7811,-2.7814,-2.7892,-2.7895,-2.7896,-2.7898,0,-2.7794,-2.778,-2.7801,-2.7817,-2.7834,-2.7846,-2.7854,-2.7871,-2.7834,-2.7855,-2.7882,-2.7896,-2.7922,-2.7946,-2.7962,-2.7959,-2.7923,-2.7918,-2.7931,-2.7941,-2.7949,-2.7944,-2.7744,-2.7913,-2.7912,-2.7911,-2.791,-2.7909,-2.7913,-2.7944,-2.7943,-2.7967,-2.797,-2.7978,-2.8005,-2.7992,-2.8015,-2.8033,-2.8011,-2.8045,-2.8045,-2.8062,-2.8064,-2.8089,-2.8062,-2.8081,-2.8086,-2.8091,-2.8099,-2.7946,-2.8092,-2.8092,-2.8091,-2.8091,-2.809,0,-2.8069,-2.8065,-2.8088,-2.81,-2.8119,-2.8083,-2.809,-2.8108,-2.8138,-2.8141,-2.8159,-2.819,-2.8213,-2.8199,-2.8219,-2.8242,-2.8226,-2.8248,-2.8246,-2.8246,-2.8123,-2.8109,-2.8261,-2.8261,-2.8261,-2.8261,-2.8261,-2.8261,-2.8152,-2.8202,-2.8188,-2.8239,-2.8234,-2.8267,-2.8273,-2.8281,-2.8283,-2.832,-2.8338,-2.8329,-2.8325,-2.8344,-2.8363,-2.8359,-2.8367,-2.8396,-2.8385,-2.8271,-2.8254,-2.8238,-2.8225,-2.8399,-2.8399,-2.8505,-2.8506,-2.8507]},{"header":{"parameterUnit":"m.s-1","parameterCategory":1,"la1":30.2991,"la2":30.254,"lo1":-89.0895,"lo2":-89.0444,"dy":0.0017,"dx":0.0017,"nx":28,"ny":28,"refTime":"2024-08-27T21:00:00:Z","depth":0,"parameterNumber":3,"parameterNumberName":"V-component_of_WINDS"},"data":[0,0,0,0,0,0,0,0,0,0,0,0,0,0,0,0,0,0,0,0,0,0,0,0,0,0,0,0,0,0,0,0,0,0,0,0,0,0,0,0,0,0,0,0,0,0,0,0,0,0,0,0,0,0,0,0,0,0,0.3138,0.3139,0,0.3199,0.32,0.3201,0.3202,0.3201,0.32,0.3199,0.3265,0.3267,0.327,0,0,0,0,0,0,0,0,0,0,0,0,0,0.3026,0.3028,0.3138,0.3139,0.3139,0.3199,0.32,0.3201,0.3202,0.3201,0.32,0.3199,0.3264,0.3267,0.327,0,0,0,0,0,0,0,0,0,0,0,0,0,0.308,0.3029,0.3138,0.3147,0.3149,0.3199,0.32,0.3201,0.3202,0.3201,0.32,0.3199,0.3263,0.3267,0.327,0.3316,0,0,0.3282,0.3283,0,0,0,0,0,0,0,0,0.3077,0.3084,0.3145,0.3147,0.3148,0.3192,0.3184,0.324,0.3202,0.3182,0.3199,0.3198,0.3242,0.3247,0.3261,0.3319,0.3322,0.3282,0.3284,0.3286,0.3287,0,0,0,0,0,0,0,0.3073,0.3081,0.3162,0.3146,0.3148,0.315,0.3156,0.3195,0.3218,0.3184,0.3184,0.3191,0.3242,0.3257,0.3263,0.3323,0.3282,0.3285,0.3287,0.3289,0.3425,0.3426,0,0,0,0,0,0,0.3067,0.3078,0.316,0.3164,0.3109,0.3152,0.316,0.3179,0.3217,0.3222,0.3192,0.3191,0.3252,0.3258,0.3265,0.3323,0.3286,0.3289,0.3291,0.3423,0.3425,0.3426,0,0,0,0,0,0,0.3064,0.3074,0.3158,0.3121,0.3132,0.3156,0.3177,0.3181,0.3196,0.3223,0.3228,0.3203,0.3251,0.326,0.3304,0.3325,0.3291,0.3294,0.3421,0.3424,0.3426,0.3437,0,0,0,0,0,0,0.3061,0.3073,0.309,0.3121,0.3134,0.3194,0.3179,0.3183,0.3202,0.3201,0.3235,0.3239,0.3251,0.3298,0.3307,0.3329,0.3297,0.342,0.3422,0.3425,0.3435,0.3439,0.3443,0,0,0,0,0,0.3057,0.3091,0.3091,0.3101,0.3155,0.3196,0.3203,0.3214,0.3204,0.3221,0.3239,0.3238,0.3321,0.3303,0.3313,0.3336,0.3418,0.3422,0.3425,0.3433,0.3439,0.3443,0,0,0,0,0,0,0.3061,0.3095,0.3095,0.314,0.3165,0.3196,0.3218,0.3219,0.3249,0.3247,0.3261,0.3269,0.3313,0.3329,0.3308,0.3384,0.3369,0.3374,0.3372,0.3377,0.3381,0.3376,0.33,0,0,0,0,0,0.3068,0.3097,0.3125,0.3162,0.3174,0.3194,0.3212,0.3219,0.3246,0.3257,0.3278,0.3305,0.3337,0.3358,0.3389,0.3438,0.3446,0.3459,0.3463,0.3466,0.3471,0.35,0.3506,0.3437,0.3437,0.3437,0,0,0.3081,0.3103,0.312,0.3163,0.3183,0.3215,0.3203,0.3236,0.326,0.3262,0.3305,0.3322,0.3353,0.34,0.3422,0.3415,0.3492,0.347,0.3472,0.3475,0.3504,0.351,0.3516,0.3439,0.3438,0.3438,0,0,0.312,0.3139,0.3173,0.3193,0.3224,0.3237,0.3245,0.3276,0.3287,0.333,0.3333,0.3363,0.3417,0.344,0.3459,0.3509,0.351,0.3519,0.354,0.3568,0.3574,0.3579,0.3598,0.3604,0.3523,0.3523,0.3523,0,0.3133,0.3178,0.319,0.3223,0.3243,0.3246,0.3281,0.3301,0.3341,0.3355,0.3346,0.3416,0.3437,0.3491,0.3503,0.3518,0.3529,0.3515,0.3572,0.3577,0.3582,0.36,0.3607,0.3524,0.3524,0.3524,0.3524,0,0.3193,0.3225,0.3249,0.3286,0.3309,0.3343,0.3361,0.3383,0.3388,0.3403,0.3448,0.3474,0.3511,0.3524,0.353,0.3579,0.3574,0.3568,0.3553,0.3589,0.3607,0.3614,0.3526,0.3525,0.3525,0.3525,0,0,0.3236,0.3281,0.3289,0.3307,0.3342,0.3368,0.3403,0.3439,0.3458,0.3485,0.3516,0.3563,0.3559,0.358,0.3589,0.3614,0.3654,0.3606,0.3607,0.3615,0.3711,0.3716,0.3723,0.3655,0.3656,0.3657,0.3709,0,0.328,0.3341,0.3354,0.3407,0.3438,0.3443,0.3474,0.35,0.3515,0.3544,0.3562,0.3595,0.3586,0.36,0.3624,0.3644,0.3674,0.364,0.3685,0.3687,0.3677,0.3732,0.3737,0.3784,0.3716,0.3717,0.3718,0,0.3339,0.3368,0.3425,0.3457,0.3471,0.3498,0.3533,0.3561,0.3591,0.36,0.3625,0.3631,0.367,0.3653,0.3708,0.3685,0.3704,0.3717,0.3719,0.3724,0.3704,0.374,0.38,0.3807,0.3729,0.3728,0.3727,0,0.3366,0.342,0.3461,0.3476,0.3514,0.3534,0.3551,0.358,0.3601,0.3632,0.3647,0.3682,0.3701,0.3729,0.3746,0.3732,0.38,0.3784,0.381,0.381,0.3824,0.3823,0.3889,0.3836,0.3836,0.3836,0.3835,0,0.3414,0.3449,0.3474,0.3499,0.3539,0.3554,0.3593,0.361,0.3636,0.3667,0.3673,0.3702,0.3721,0.3753,0.3767,0.3811,0.3819,0.3829,0.3833,0.3829,0.3828,0.3842,0.3839,0.3838,0.3837,0.3837,0.3836,0,0.3451,0.3469,0.3514,0.3547,0.3556,0.3584,0.3613,0.3639,0.3655,0.3693,0.3703,0.3729,0.3767,0.3786,0.3833,0.3843,0.3893,0.3894,0.3882,0.3884,0.3909,0.3907,0.3986,0.3998,0.3937,0.3937,0.3938,0,0.3481,0.3508,0.3544,0.3564,0.3581,0.3614,0.3636,0.3652,0.3675,0.3712,0.3734,0.3772,0.3804,0.3865,0.3888,0.3925,0.3928,0.3953,0.3933,0.3929,0.3929,0.3928,0.3931,0.3957,0.3957,0.3958,0.3958,0,0.3532,0.354,0.357,0.3605,0.3631,0.3659,0.3687,0.3703,0.3724,0.375,0.3789,0.3813,0.3862,0.39,0.3939,0.3959,0.3963,0.3964,0.3972,0.3969,0.3962,0.3967,0.3893,0.3962,0.3962,0.3961,0.3961,0.3961,0.3567,0.3591,0.3621,0.3656,0.3678,0.3705,0.3731,0.375,0.3782,0.3823,0.3831,0.3872,0.3904,0.3957,0.3977,0.4011,0.4006,0.4017,0.4021,0.4023,0.4025,0.3956,0.4018,0.4018,0.4018,0.4018,0.4018,0,0.3619,0.3638,0.367,0.3709,0.3737,0.3737,0.3769,0.3792,0.3828,0.3857,0.3888,0.3933,0.3971,0.3998,0.4037,0.4059,0.4062,0.4069,0.4068,0.4073,0.4027,0.4016,0.4066,0.4066,0.4066,0.4066,0.4066,0.4066,0.3649,0.3692,0.3703,0.3758,0.3778,0.3818,0.3836,0.3861,0.3884,0.3934,0.3965,0.3982,0.4011,0.4053,0.4088,0.4095,0.411,0.4117,0.4124,0.4081,0.4076,0.4071,0.4061,0.412,0.412,0.4168,0.4168,0.4168]}]]